Temperature
17 17 17 16 16 16 16 16 16 16 16 15 15 15 15 15 15 14 14 14 14 14 14 14 13 13 13 13 13 13 13 13 13 13 13 13 13 13 13 13 13 13 13
17 17 17 16 16 16 16 16 16 16 16 15 15 15 15 15 14 14 14 14 14 14 13 13 13 13 13 13 13 13 13 13 13 13 13 13 13 13 13 13 13 13 13
17 17 17 16 16 16 16 16 16 16 15 15 15 15 15 14 14 14 14 14 13 13 13 13 13 13 13 13 13 12 12 13 13 12 12 12 12 12 12 12 12 12 12
17 17 17 16 16 16 16 16 16 15 15 15 15 15 15 14 14 14 14 13 13 13 13 13 13 13 13 12 12 12 12 12 12 12 12 12 12 12 12 12 12 12 12
17 17 17 17 16 16 16 16 15 15 15 15 15 14 14 14 14 14 13 13 13 13 13 13 12 12 12 12 12 12 12 12 12 12 12 12 12 12 11 12 12 12 12
17 17 17 16 16 16 16 15 15 15 15 15 14 14 14 14 14 14 13 13 13 13 13 12 12 12 12 12 12 12 12 12 12 12 12 12 12 12 11 11 11 11 12
17 17 17 17 16 16 16 15 15 15 15 15 14 14 14 14 13 13 13 13 13 13 12 12 12 12 12 12 12 12 12 12 12 12 12 12 12 12 11 11 11 11 11
17 17 17 17 16 16 16 15 15 15 15 14 14 14 14 13 13 13 13 13 12 12 12 12 12 12 11 11 11 11 11 11 12 12 12 12 12 12 11 11 11 11 11
16 16 16 16 16 16 16 15 15 15 15 14 14 14 13 13 13 13 13 12 12 12 12 12 11 11 11 11 11 11 11 11 11 11 11 11 11 11 11 11 11 11 11
16 16 16 16 16 16 16 15 15 15 15 14 14 13 13 13 13 13 12 12 12 12 12 12 11 11 11 11 11 11 11 11 11 11 11 11 11 11 11 11 11 11 11
16 16 16 16 16 15 15 15 15 15 14 14 14 13 13 13 13 12 12 12 12 12 12 11 11 11 11 11 11 11 11 11 11 11 11 11 11 11 11 11 11 11 11
16 16 16 15 15 15 15 15 15 14 14 14 14 13 13 13 12 12 12 12 12 11 11 11 11 11 11 11 11 11 10 10 11 11 11 11 11 11 11 11 11 11 11
15 15 15 15 15 15 14 14 14 14 14 13 13 13 13 13 12 12 12 11 11 11 11 11 11 11 10 10 10 10 10 10 10 10 10 10 10 10 10 10 10 10 10
15 15 15 15 15 14 14 14 14 14 13 13 13 13 12 12 12 12 11 11 11 11 11 11 10 10 10 10 10 10 10 10 10 10 10 10 10 10 10 10 10 10 10
14 15 14 14 14 14 14 14 13 13 13 13 13 12 12 12 12 11 11 11 11 11 11 10 10 10 10 10 10 10 10 10 10 10 9 9 9 9 10 10 10 10 10
14 14 14 14 14 14 14 13 13 13 13 13 12 12 12 12 11 11 11 11 11 10 10 10 10 10 10 10 9 9 9 9 9 9 9 9 9 9 9 9 9 9 9
14 14 14 14 14 14 14 13 13 13 13 12 12 12 11 11 11 11 11 11 10 10 10 10 10 10 10 9 9 9 9 9 9 9 9 9 9 9 9 9 9 9 9
14 14 14 14 14 13 13 13 13 12 12 12 12 11 11 11 11 10 10 10 10 10 10 10 9 9 9 9 9 9 9 9 9 9 8 8 8 8 8 8 9 9 9
14 14 14 14 13 13 13 12 12 12 12 12 11 11 11 11 10 10 10 10 10 10 9 9 9 9 9 9 9 8 8 8 8 8 8 8 8 8 8 8 8 8 8
14 13 13 13 13 12 12 12 12 12 11 11 11 11 10 10 10 10 10 9 9 9 9 9 9 9 9 9 8 8 8 8 8 8 8 8 8 8 8 8 8 8 8
13 13 13 13 12 12 12 11 11 11 11 11 10 10 10 9 9 9 9 9 9 9 8 8 8 8 8 8 8 8 8 8 8 8 8 8 8 8 8 7 7 7 7
13 12 12 12 12 11 11 11 11 11 10 10 10 10 9 9 9 9 9 8 8 8 8 8 8 8 8 7 8 7 7 7 7 8 8 8 7 7 7 7 7 7 7
12 12 12 11 11 11 11 11 11 10 10 10 10 9 9 9 8 8 8 8 8 8 7 7 7 7 7 7 7 7 7 7 7 7 7 7 7 7 7 7 7 7 6
11 11 11 11 11 10 10 10 10 10 10 10 9 9 9 8 8 8 8 7 7 7 7 7 7 7 7 7 7 7 7 7 7 7 7 6 6 6 6 6 6 6 6
11 11 10 10 10 10 10 10 9 9 9 9 9 9 8 8 8 7 7 7 7 7 7 7 6 6 7 7 6 6 6 6 6 6 6 6 6 6 6 6 6 6 6
10 10 10 10 9 9 9 9 9 9 9 9 8 8 8 8 7 7 7 6 6 6 6 6 6 6 6 6 6 6 6 6 6 6 5 5 5 5 5 5 5 5 5
Wind_Speed
5 3 4 4 4 3 3 3 3 3 3 2 2 2 1 1 1 2 2 3 3 4 4 3 3 3 2 2 2 2 3 2 2 2 3 3 3 3 3 4 4 5 6
3 3 4 4 5 5 4 4 4 4 4 2 2 2 2 1 1 1 3 3 3 3 3 3 2 2 2 2 2 2 2 2 2 2 2 3 4 4 4 4 4 4 4
8 6 5 6 5 6 6 5 4 4 4 3 3 3 3 3 2 2 1 1 2 2 3 3 3 2 2 1 1 1 2 1 2 2 2 2 1 3 3 3 4 4 3
7 7 6 6 7 7 6 5 5 4 4 4 5 5 3 2 1 1 0 1 1 2 2 2 2 2 2 1 1 1 1 2 1 1 2 1 2 1 2 3 3 4 3
8 8 8 8 7 6 6 5 5 4 4 4 5 5 3 2 1 1 1 1 1 1 1 1 2 1 1 1 1 1 1 1 1 1 1 1 2 1 1 2 4 4 3
7 7 6 5 5 5 5 5 5 5 4 5 5 5 5 4 3 2 1 0 0 1 1 1 1 1 1 1 1 1 1 1 1 1 1 1 1 1 1 1 2 3 3
6 6 6 6 6 6 6 6 6 5 5 5 5 5 5 5 5 3 3 2 1 1 1 0 1 1 1 2 1 1 1 1 1 1 1 2 2 2 2 2 1 2 3
5 6 7 7 7 7 7 7 7 6 6 6 5 4 4 3 3 3 3 3 2 2 1 1 1 1 1 1 1 1 1 1 1 1 1 1 1 2 3 3 2 1 2
4 5 5 6 6 7 7 8 8 6 6 6 5 4 4 4 3 3 3 2 2 2 2 1 1 1 0 1 1 1 2 1 2 2 1 1 1 1 1 2 3 3 1
2 3 4 5 5 6 5 5 7 7 6 5 5 4 4 4 4 3 3 3 3 2 2 1 1 1 0 0 1 0 1 1 1 1 1 1 1 1 1 1 1 2 3
3 2 2 3 4 3 4 4 5 5 5 5 5 4 4 4 3 3 3 3 2 2 2 2 2 2 1 1 1 1 1 1 1 1 1 1 1 1 1 1 1 1 2
2 2 2 2 2 3 3 4 5 5 5 5 4 4 4 3 3 3 3 3 3 3 3 2 2 2 2 2 2 2 1 1 1 2 1 2 1 1 1 1 1 2 2
1 2 2 2 2 3 3 4 4 5 5 5 4 4 4 4 4 4 4 3 3 3 2 2 3 3 3 3 3 3 3 3 3 2 2 2 2 2 2 2 2 2 2
2 2 2 2 2 3 3 3 3 3 4 5 5 5 5 5 5 4 4 4 3 3 3 3 3 3 3 3 3 3 2 2 2 2 2 2 3 3 3 3 3 2 1
1 3 3 3 2 2 2 2 3 3 4 5 5 6 5 5 4 4 4 3 3 4 3 3 3 3 3 4 4 3 3 3 2 2 2 3 3 3 3 2 2 2 2
3 3 3 3 3 3 3 2 2 2 3 4 5 5 4 4 4 4 4 4 4 3 3 3 3 3 4 4 4 4 3 3 3 3 3 3 3 4 4 4 3 4 3
4 4 4 5 5 4 4 4 3 2 3 3 3 3 4 4 4 4 4 4 4 4 4 4 4 4 5 5 5 5 4 4 4 4 3 3 4 4 3 4 4 5 5
4 4 4 3 3 2 2 2 2 3 3 3 3 3 3 3 3 4 5 5 4 4 4 4 4 4 5 6 6 6 4 4 4 4 4 4 5 4 3 3 3 4 4
4 4 3 3 2 2 3 3 2 2 3 3 3 3 3 3 3 4 5 4 4 4 4 3 3 3 4 5 5 4 3 3 4 4 4 4 5 5 3 2 3 4 5
1 2 2 1 2 2 3 4 3 2 3 4 4 3 3 3 4 4 4 3 3 4 3 2 3 3 4 4 3 3 3 3 3 3 4 5 5 5 4 4 4 5 5
0 1 2 2 2 2 3 3 2 3 4 2 2 2 2 3 3 3 2 2 2 2 2 2 1 2 2 3 3 2 2 3 3 3 3 4 5 5 4 3 4 5 4
1 1 2 1 0 2 3 2 3 3 1 2 2 2 2 2 2 2 1 2 2 3 2 1 1 1 2 2 2 2 2 2 2 3 3 3 3 3 3 3 4 4 2
1 1 2 1 0 1 2 2 2 1 1 2 2 1 1 1 1 2 2 2 2 2 2 2 1 1 1 2 2 1 2 1 1 2 2 2 2 2 2 3 3 2 1
2 1 2 2 1 1 1 2 1 1 2 2 2 1 1 1 1 1 1 1 2 2 2 2 2 1 1 1 1 1 1 1 1 1 1 1 2 2 3 3 3 2 1
1 2 3 3 2 1 1 0 1 2 3 2 2 1 1 1 1 1 0 1 2 3 3 3 2 2 2 2 1 0 1 1 1 1 1 2 2 2 2 3 3 2 2
2 2 2 2 2 1 1 1 1 3 4 3 2 1 1 1 1 1 1 3 2 1 1 1 2 1 1 1 1 1 2 2 3 3 2 1 1 1 1 1 2 2 2
Wind_Direction
228 196 187 175 158 150 147 147 143 137 124 108 113 116 109 80 63 61 75 94 107 119 117 100 87 78 82 74 72 74 60 40 26 51 22 7 15 27 16 15 20 21 19
216 196 181 173 171 169 168 159 159 162 164 154 138 130 128 116 104 57 64 85 106 122 132 125 123 110 97 72 62 71 68 39 36 77 66 11 354 359 3 5 14 9 12
206 202 190 190 179 180 178 174 176 174 169 146 114 91 69 53 45 39 41 37 91 114 127 134 128 120 118 120 95 88 95 81 24 53 108 107 281 318 336 357 10 6 8
202 198 193 193 194 196 185 175 174 168 158 148 145 143 142 152 190 188 225 12 71 88 106 118 122 124 128 135 160 107 113 115 78 30 50 114 154 133 328 336 350 356 2
197 196 198 199 197 188 181 179 165 160 153 157 161 157 148 152 128 106 86 38 22 46 85 125 131 144 159 168 162 119 124 130 144 138 113 80 66 99 133 308 329 341 343
196 196 197 186 182 172 174 173 164 165 163 162 162 164 159 154 146 150 153 53 352 1 27 101 143 182 187 195 195 169 158 154 147 154 155 161 164 178 155 224 295 312 316
192 190 185 184 183 178 177 176 172 174 172 171 176 177 172 170 176 181 185 182 190 274 274 285 222 229 222 203 175 159 192 178 171 189 197 196 201 176 164 169 246 297 311
191 196 199 193 191 188 182 179 182 183 178 180 186 182 178 176 186 187 191 197 202 222 233 233 260 257 241 211 177 182 216 196 204 217 202 204 223 187 178 174 164 310 320
201 205 202 191 189 190 191 189 186 186 186 188 183 177 182 182 188 190 194 205 210 214 195 181 195 260 235 197 161 227 229 194 211 217 210 220 247 215 207 187 177 169 222
218 216 201 195 194 195 195 188 187 191 190 186 187 189 195 197 189 178 190 204 208 206 175 177 191 208 228 202 145 307 281 197 224 208 191 239 259 221 200 197 199 188 185
211 220 211 193 185 179 176 183 193 189 186 186 188 187 192 189 178 185 200 206 206 193 188 194 197 199 212 203 167 232 254 225 257 245 192 246 233 201 210 177 182 197 178
184 183 169 146 159 174 180 187 194 194 197 189 181 186 183 181 191 203 212 208 203 205 204 200 203 211 212 203 200 222 233 219 238 254 218 241 228 222 223 209 220 218 203
144 131 132 159 185 187 188 192 198 199 189 174 177 185 189 193 205 213 213 208 205 207 205 200 210 217 213 210 215 216 218 221 231 238 237 242 208 240 242 233 234 233 221
164 159 175 192 200 199 195 195 204 195 181 173 179 192 203 210 214 213 210 206 202 199 207 208 216 223 221 214 213 210 212 223 235 241 245 249 229 232 232 232 228 213 192
190 190 196 198 193 194 198 194 197 192 183 178 188 204 208 209 212 211 210 207 202 205 207 207 223 228 224 217 205 203 209 217 237 253 256 259 265 264 240 240 216 189 190
243 225 205 198 200 203 203 193 191 194 178 184 199 204 200 203 208 212 210 209 214 217 210 214 223 235 243 236 213 199 208 214 224 245 260 266 263 274 269 263 231 197 196
233 224 216 212 212 211 199 195 199 181 172 189 201 200 199 207 215 213 209 210 216 216 221 225 223 233 247 242 224 214 203 217 228 234 244 262 270 262 259 264 255 238 234
238 235 230 229 221 196 177 167 155 163 174 183 196 201 198 208 212 208 216 221 216 212 219 224 225 233 249 249 237 224 213 226 235 235 233 240 257 254 238 248 258 252 250
239 230 221 214 193 175 164 147 150 161 168 186 202 210 201 206 209 222 230 229 222 221 220 224 222 232 258 263 244 213 207 234 250 254 254 251 251 260 244 235 254 271 274
235 205 184 161 166 181 155 148 164 175 203 213 212 205 195 202 216 226 233 233 220 222 216 222 222 227 254 278 261 210 197 227 248 262 264 263 264 269 250 226 235 255 264
338 154 144 157 187 170 152 159 179 219 231 221 205 202 202 210 216 223 227 208 193 190 197 209 238 242 265 282 265 233 207 214 228 247 260 267 272 269 263 245 238 258 265
34 121 126 134 167 155 154 167 214 238 215 167 185 206 213 220 206 199 222 200 173 168 185 198 252 289 289 303 285 258 249 224 211 242 255 266 278 274 275 270 285 287 296
157 144 137 128 52 165 159 185 235 216 161 147 170 188 184 197 172 171 180 181 174 174 189 186 212 281 309 317 327 325 309 284 232 251 275 298 291 288 289 302 312 307 302
176 150 130 142 199 236 188 198 215 185 147 152 166 160 143 117 97 121 150 165 185 182 186 187 201 235 275 289 289 293 300 319 287 298 334 8 20 26 14 4 348 345 323
198 168 167 179 206 204 157 180 174 146 137 142 144 137 141 149 129 105 145 202 218 197 187 199 197 197 235 263 271 186 190 191 182 101 63 43 35 32 17 9 6 7 8
184 166 167 170 192 181 179 216 175 154 148 146 149 154 161 158 148 134 49 23 31 32 117 152 159 203 238 14 35 38 49 67 97 100 86 63 48 34 4 357 358 6 359
Height
1514 1516 1517 1519 1520 1521 1523 1524 1525 1526 1527 1528 1528 1529 1529 1529 1530 1530 1530 1531 1531 1531 1531 1531 1531 1531 1531 1530 1530 1530 1529 1529 1528 1528 1528 1528 1527 1527 1527 1526 1526 1525 1525
1512 1513 1515 1517 1518 1519 1521 1522 1524 1525 1526 1527 1527 1528 1529 1529 1529 1529 1530 1530 1530 1531 1531 1531 1531 1531 1531 1530 1530 1529 1529 1529 1528 1528 1528 1528 1529 1527 1527 1526 1526 1525 1525
1508 1510 1512 1514 1515 1517 1519 1520 1522 1523 1525 1526 1526 1527 1528 1528 1528 1528 1528 1529 1529 1530 1530 1530 1530 1530 1530 1530 1530 1529 1529 1528 1529 1529 1529 1528 1528 1527 1527 1526 1526 1525 1525
1505 1507 1509 1511 1513 1515 1517 1519 1520 1522 1523 1524 1525 1525 1526 1526 1527 1527 1528 1528 1528 1529 1529 1529 1529 1529 1530 1529 1529 1529 1529 1529 1528 1528 1529 1529 1528 1528 1526 1526 1526 1525 1525
1502 1504 1506 1508 1511 1513 1515 1517 1518 1520 1521 1522 1523 1524 1525 1525 1526 1527 1527 1527 1527 1527 1528 1528 1528 1528 1528 1529 1529 1528 1528 1528 1528 1528 1528 1528 1528 1527 1527 1526 1525 1525 1525
1499 1501 1504 1506 1509 1511 1513 1514 1516 1518 1519 1520 1522 1522 1523 1524 1524 1525 1525 1526 1526 1526 1526 1527 1527 1527 1527 1527 1527 1527 1527 1527 1527 1527 1527 1527 1527 1526 1526 1525 1525 1524 1524
1496 1498 1501 1503 1505 1508 1510 1512 1514 1515 1517 1518 1520 1521 1522 1522 1523 1523 1524 1524 1524 1524 1525 1525 1525 1526 1526 1526 1526 1526 1526 1526 1526 1526 1526 1526 1526 1526 1525 1525 1524 1523 1523
1494 1496 1498 1500 1503 1505 1507 1509 1511 1513 1515 1516 1518 1519 1520 1521 1521 1522 1522 1522 1522 1523 1523 1523 1524 1524 1524 1524 1524 1524 1524 1524 1524 1525 1524 1524 1524 1524 1524 1524 1523 1522 1522
1492 1494 1496 1498 1500 1503 1505 1507 1509 1511 1513 1514 1516 1517 1518 1519 1519 1520 1520 1520 1521 1521 1521 1521 1522 1522 1522 1522 1522 1523 1523 1523 1523 1523 1523 1523 1522 1522 1522 1522 1522 1522 1521
1491 1492 1494 1496 1498 1501 1503 1505 1507 1508 1510 1512 1513 1515 1516 1516 1517 1518 1518 1518 1518 1519 1519 1519 1519 1519 1520 1520 1520 1520 1521 1521 1521 1521 1521 1520 1520 1520 1520 1520 1520 1520 1520
1490 1491 1493 1494 1497 1499 1501 1502 1504 1506 1508 1509 1511 1512 1513 1514 1514 1515 1515 1516 1516 1516 1516 1516 1517 1517 1517 1517 1518 1518 1518 1518 1518 1518 1518 1518 1518 1518 1518 1518 1517 1517 1517
1489 1490 1491 1493 1494 1496 1498 1500 1501 1503 1505 1506 1508 1509 1510 1511 1512 1512 1513 1513 1513 1513 1514 1514 1514 1514 1515 1515 1515 1515 1515 1516 1516 1516 1516 1516 1516 1515 1515 1515 1515 1514 1514
1488 1489 1490 1491 1492 1494 1495 1497 1498 1500 1502 1503 1505 1506 1507 1508 1508 1509 1509 1510 1510 1511 1511 1511 1511 1512 1512 1512 1512 1513 1513 1513 1513 1513 1513 1513 1513 1512 1512 1512 1512 1512 1512
1487 1487 1488 1489 1490 1492 1493 1494 1496 1497 1499 1500 1501 1502 1503 1504 1505 1505 1506 1507 1507 1508 1508 1508 1508 1509 1509 1509 1510 1510 1510 1510 1510 1510 1510 1510 1509 1509 1509 1509 1509 1509 1509
1485 1486 1486 1487 1488 1489 1490 1491 1492 1494 1495 1497 1498 1499 1500 1501 1501 1502 1502 1503 1504 1504 1504 1505 1505 1505 1506 1506 1506 1506 1507 1507 1506 1506 1506 1506 1506 1506 1506 1506 1506 1506 1506
1483 1484 1484 1485 1485 1487 1488 1489 1490 1491 1492 1493 1494 1495 1496 1497 1497 1498 1499 1499 1500 1500 1501 1501 1501 1502 1502 1503 1503 1503 1503 1503 1503 1502 1502 1502 1502 1502 1502 1502 1502 1503 1502
1481 1482 1482 1482 1483 1484 1485 1486 1487 1488 1489 1490 1490 1491 1492 1493 1493 1494 1494 1495 1495 1496 1496 1497 1497 1497 1498 1499 1500 1500 1500 1499 1499 1499 1499 1499 1498 1498 1498 1498 1498 1498 1499
1479 1480 1480 1480 1481 1482 1483 1484 1485 1485 1485 1486 1487 1487 1488 1489 1489 1490 1490 1490 1491 1492 1492 1492 1493 1493 1494 1495 1496 1496 1496 1496 1496 1496 1496 1495 1495 1494 1494 1494 1494 1494 1494
1478 1478 1478 1478 1479 1479 1480 1481 1482 1482 1482 1483 1483 1484 1484 1485 1485 1485 1486 1486 1487 1487 1487 1488 1488 1489 1489 1490 1491 1491 1492 1492 1492 1492 1492 1492 1491 1491 1491 1490 1490 1490 1490
1475 1476 1476 1476 1476 1477 1478 1478 1479 1479 1479 1480 1480 1481 1481 1481 1481 1481 1482 1482 1482 1483 1483 1484 1484 1485 1485 1486 1487 1488 1488 1488 1488 1488 1488 1488 1488 1488 1487 1487 1486 1485 1485
1473 1474 1474 1474 1474 1474 1475 1475 1476 1476 1477 1477 1478 1478 1478 1478 1478 1478 1478 1478 1478 1479 1479 1480 1480 1481 1481 1482 1483 1483 1484 1484 1484 1484 1484 1484 1484 1484 1484 1483 1482 1482 1482
1471 1471 1471 1471 1472 1472 1472 1472 1473 1474 1475 1475 1475 1475 1475 1475 1475 1475 1475 1475 1475 1475 1475 1476 1477 1477 1478 1478 1479 1479 1480 1480 1480 1480 1480 1480 1480 1480 1480 1479 1478 1478 1478
1469 1469 1469 1469 1470 1470 1470 1470 1471 1471 1471 1471 1472 1472 1472 1472 1472 1472 1472 1472 1472 1472 1472 1473 1473 1474 1474 1475 1475 1476 1476 1476 1476 1476 1476 1476 1476 1476 1476 1475 1475 1474 1473
1466 1466 1467 1467 1467 1468 1468 1468 1469 1469 1469 1469 1469 1469 1469 1469 1469 1469 1470 1470 1470 1470 1470 1470 1471 1471 1471 1472 1472 1472 1472 1472 1473 1473 1473 1473 1473 1472 1472 1472 1471 1470 1470
1464 1464 1465 1465 1465 1465 1465 1466 1466 1466 1466 1466 1466 1467 1467 1467 1467 1467 1467 1467 1467 1468 1468 1468 1468 1468 1469 1469 1470 1469 1469 1469 1469 1469 1469 1469 1469 1468 1468 1468 1468 1467 1466
1461 1462 1462 1462 1463 1463 1463 1463 1463 1464 1464 1464 1464 1464 1464 1465 1465 1465 1465 1465 1465 1466 1466 1466 1466 1466 1467 1468 1468 1467 1467 1467 1467 1466 1465 1465 1465 1465 1465 1465 1465 1464 1464